COSMOS 970 DEB, 14444

Orbit data source: Space-Track

COSMOS 970 DEB, 14444 is space debris in LEO originally from a launch on Wed, 21 Dec 1977 UTC launched from the Tyuratam Missile And Space Complex (TTMTR). Debris objects in space refer to the collection of defunct objects orbiting the Earth. Examples of debris include non-operational satellites, rocket bodies, and fragments generated from explosions, collisions, or faulty payload assembly.

Loading next visibility...
Identifier
14444, 1977-121BG
Orbit
LEO
Country
Flag of CISCIS
Related business
Manufacturer
Unknown
Mission
Spacecraft
Bus & Motor
Unknown
Mass
Unknown
Launch date (UTC)
1977-12-21 (48 years ago)
Launch vehicle
Unknown
Launch site
Tyuratam Missile And Space Complex (TTMTR)
Object type
Payload
Rocket body
Debris
Shape & HBR
Unknown shape, 0.1 m
Radar Cross Section
Small (<0.1 m²)

Expand to show TLE details & history
Last TLE update: 2 days ago

TLE from 2 days ago
0 COSMOS 970 DEB
1 14444U 77121BG  26170.11526024  .00000678  00000-0  74941-3 0  9991
2 14444  65.7955 201.7183 0061182 313.7835  78.9109 13.77658502236779
Epoch: 2026-06-19T02:45Z
TLE epoch observation values (Epoch: 2026-06-19T02:45:58.484Z)
Latitude
30.19078°
Longitude
-92.04446°
Altitude
966.687 km
Speed
7.376 km/s
True Right ascension
14h 27m 11s
True Declination
30° 02' 45"
Sunlit
Object was in daylight at epoch
Visualization orbit readout
Latitude
Unknown
Longitude
Unknown
Altitude
Unknown
Speed
Unknown
Apparent Right ascension
Unknown
Apparent Declination
Unknown
Sunlit
N/A
Visualization observer readout
Local Sidereal Time
08:33:24
Azimuth
Unknown
Elevation
Unknown
Doppler factor
Unknown
Orbital elements
Apogee altitude
1,015.685 km
Perigee altitude
925.761 km
Semi-major axis
7,348.86 km
Eccentricity
0.00612
Inclination
65.7955°
RAAN
201.7183°
Arg. of periapsis
313.7835°
True anomaly
79.5999°
Mean anomaly
78.9109°
Eccentric anomaly
79.2553°
Mean motion
3.44519 °/min
Orbital period
104.49 mins
BSTAR
0.00074941
Loading maneuver chart data...
Computing Atmospheric mass density...
Loading historical data...
Loading historical data...
Loading historical data...
Loading historical data...
Loading historical data...
Loading historical data...
Loading historical data...

Documentation

Showing up to 5 results
|